N42AB KGVE-KRMN

Flight info

Callsign N42AB
Flight time 0h 13m
Altitude 5000
Route DCT
Aircraft SF50/L-VGDW/C

Departure

Time 2026-05-06 00:53
Airport Gordonsville Municipal Airport (KGVE)

Arrival

Time 2026-05-06 01:06
Airport Stafford Regional Airport (KRMN)
Time Latitude Longitude Altitude Speed Heading
2026-05-06 00:46 38.15716 -78.16672 455 ft 0 kts 331°
2026-05-06 00:49 38.15709 -78.16667 453 ft 0 kts 330°
2026-05-06 00:50 38.15711 -78.16668 454 ft 2 kts 36°
2026-05-06 00:50 38.15694 -78.16635 451 ft 7 kts 131°
2026-05-06 00:50 38.15655 -78.16572 447 ft 10 kts 128°
2026-05-06 00:51 38.15652 -78.16567 446 ft 0 kts 128°
2026-05-06 00:51 38.15650 -78.16564 446 ft 6 kts 128°
2026-05-06 00:51 38.15673 -78.16501 445 ft 15 kts 40°
2026-05-06 00:51 38.15764 -78.16415 441 ft 17 kts 36°
2026-05-06 00:52 38.15833 -78.16354 441 ft 3 kts 327°
2026-05-06 00:52 38.15839 -78.16355 441 ft 0 kts 50°
2026-05-06 00:52 38.15829 -78.16348 441 ft 0 kts 210°
2026-05-06 00:53 38.15736 -78.16437 442 ft 46 kts 217°
2026-05-06 00:53 38.15346 -78.16823 495 ft 87 kts 217°
2026-05-06 00:53 38.14883 -78.17300 780 ft 90 kts 221°
2026-05-06 00:53 38.14360 -78.17859 1130 ft 96 kts 218°
2026-05-06 00:54 38.13891 -78.18405 1637 ft 91 kts 219°
2026-05-06 00:54 38.13373 -78.18854 2094 ft 93 kts 199°
2026-05-06 00:54 38.12693 -78.18905 2519 ft 109 kts 181°
2026-05-06 00:54 38.11920 -78.18447 2980 ft 142 kts 149°
2026-05-06 00:55 38.11442 -78.17202 3436 ft 180 kts 105°
2026-05-06 00:55 38.11776 -78.15552 3893 ft 207 kts 66°
2026-05-06 00:55 38.12552 -78.13948 4359 ft 217 kts 63°
2026-05-06 00:55 38.13290 -78.12246 4819 ft 223 kts 68°
2026-05-06 00:56 38.13997 -78.10423 5000 ft 243 kts 68°
2026-05-06 00:56 38.14793 -78.08399 5008 ft 269 kts 66°
2026-05-06 00:56 38.15685 -78.06203 5012 ft 289 kts 66°
2026-05-06 00:56 38.16623 -78.03888 5019 ft 298 kts 66°
2026-05-06 00:57 38.17571 -78.01517 5015 ft 302 kts 66°
2026-05-06 00:57 38.18514 -77.99160 5016 ft 303 kts 66°
2026-05-06 00:57 38.19472 -77.96772 5019 ft 303 kts 66°
2026-05-06 00:57 38.20430 -77.94382 5015 ft 303 kts 66°
2026-05-06 00:58 38.21384 -77.91993 5018 ft 302 kts 66°
2026-05-06 00:58 38.22011 -77.89491 4995 ft 294 kts 89°
2026-05-06 00:58 38.21959 -77.86949 5005 ft 287 kts 101°
2026-05-06 00:58 38.21875 -77.84388 4998 ft 292 kts 95°
2026-05-06 00:59 38.22053 -77.81799 4997 ft 297 kts 86°
2026-05-06 00:59 38.22562 -77.79236 4814 ft 302 kts 75°
2026-05-06 00:59 38.23542 -77.76871 4429 ft 303 kts 58°
2026-05-06 00:59 38.24810 -77.74738 4054 ft 303 kts 54°
2026-05-06 01:00 38.26069 -77.72604 3681 ft 302 kts 57°
2026-05-06 01:00 38.27204 -77.70357 3319 ft 299 kts 62°
2026-05-06 01:00 38.28416 -77.68225 3001 ft 298 kts 45°
2026-05-06 01:00 38.30101 -77.66655 3000 ft 302 kts 32°
2026-05-06 01:01 38.31885 -77.65255 3005 ft 299 kts 31°
2026-05-06 01:01 38.33661 -77.63920 3005 ft 286 kts 27°
2026-05-06 01:01 38.35408 -77.63109 2997 ft 249 kts 12°
2026-05-06 01:01 38.37006 -77.62562 3004 ft 230 kts 13°
2026-05-06 01:02 38.38504 -77.61920 2999 ft 226 kts 18°
2026-05-06 01:02 38.39966 -77.61193 3005 ft 225 kts 19°
2026-05-06 01:02 38.41429 -77.60484 2998 ft 225 kts 17°
2026-05-06 01:02 38.42896 -77.59747 2832 ft 227 kts 25°
2026-05-06 01:03 38.44117 -77.58511 2562 ft 228 kts 50°
2026-05-06 01:03 38.44962 -77.56837 2281 ft 221 kts 73°
2026-05-06 01:03 38.45329 -77.55013 1993 ft 206 kts 92°
2026-05-06 01:03 38.45260 -77.53246 1705 ft 194 kts 110°
2026-05-06 01:04 38.44873 -77.51771 1464 ft 155 kts 126°
2026-05-06 01:04 38.44384 -77.50736 1272 ft 120 kts 136°
2026-05-06 01:04 38.43886 -77.50034 1118 ft 99 kts 145°
2026-05-06 01:04 38.43377 -77.49482 1035 ft 94 kts 146°
2026-05-06 01:05 38.42878 -77.48933 1038 ft 96 kts 144°
2026-05-06 01:05 38.42367 -77.48336 876 ft 95 kts 142°
2026-05-06 01:05 38.41921 -77.47826 677 ft 83 kts 144°
2026-05-06 01:05 38.41480 -77.47324 534 ft 89 kts 144°
2026-05-06 01:06 38.40991 -77.46835 392 ft 91 kts 144°
2026-05-06 01:06 38.40514 -77.46322 303 ft 93 kts 141°
2026-05-06 01:06 38.40035 -77.45788 213 ft 80 kts 144°
2026-05-06 01:06 38.39710 -77.45435 189 ft 26 kts 139°
2026-05-06 01:07 38.39673 -77.45373 202 ft 12 kts 343°
2026-05-06 01:07 38.39748 -77.45320 193 ft 21 kts 49°
2026-05-06 01:07 38.39792 -77.45227 197 ft 5 kts 179°
2026-05-06 01:07 38.39765 -77.45228 189 ft 0 kts 228°
2026-05-06 01:08 38.39762 -77.45231 189 ft 0 kts 230°